DW2891 Weather Reports


Display with metric or nautical units.
time (UTC)temp
F
wind
direction
speed
MPH
gust
MPH
rain 1hr
in
rain 24hr
in
rain mn
in
humidity
%
barometer
mb
20260902125604 60 17 0.0 3.0 0.00 0.00 0.00 84 1003.6
20260902125104 60 199 0.0 0.0 0.00 0.00 0.00 84 1003.7
20260902124603 60 199 0.0 0.0 0.00 0.00 0.00 84 1003.8
20260902124104 59 205 0.0 0.0 0.00 0.00 0.00 84 1003.7
20260902123604 59 203 1.0 6.0 0.00 0.00 0.00 84 1003.8
20260902123104 59 180 0.0 0.0 0.00 0.00 0.00 84 1003.8
20260902121603 60 226 0.0 1.0 0.00 0.00 0.00 84 1004.0
20260902121104 60 102 0.0 0.0 0.00 0.00 0.00 84 1003.9
20260902120604 60 139 0.0 2.0 0.00 0.00 0.00 84 1003.8
20260902120104 59 127 0.0 0.0 0.00 0.00 0.00 84 1003.9
20260902115104 59 169 0.0 2.0 0.00 0.00 0.00 86 1003.8
20260902113604 58 179 0.0 0.0 0.00 0.00 0.00 86 1003.9
20260902113104 58 179 0.0 0.0 0.00 0.00 0.00 86 1004.0
20260902112604 58 179 0.0 0.0 0.00 0.00 0.00 86 1004.2
20260902112104 59 185 0.0 0.0 0.00 0.00 0.00 86 1004.2
20260902111603 59 199 0.0 0.0 0.00 0.00 0.00 85 1004.2
20260902111104 59 199 0.0 0.0 0.00 0.00 0.00 85 1004.2
20260902110604 59 199 0.0 0.0 0.00 0.00 0.00 85 1004.1
20260902110104 59 199 0.0 0.0 0.00 0.00 0.00 84 1004.1
20260902105603 59 199 0.0 0.0 0.00 0.00 0.00 84 1004.3
20260902105104 59 199 0.0 2.0 0.00 0.00 0.00 84 1004.3
20260902104604 59 198 0.0 0.0 0.00 0.00 0.00 84 1004.4
20260902103103 60 169 0.0 1.0 0.00 0.00 0.00 83 1004.6
20260902102603 60 179 0.0 0.0 0.00 0.00 0.00 83 1004.5
20260902101604 60 179 0.0 0.0 0.00 0.00 0.00 82 1004.7
20260902101104 60 179 0.0 0.0 0.00 0.00 0.00 82 1004.7
20260902100603 60 179 0.0 0.0 0.00 0.00 0.00 82 1004.7
20260902100104 60 179 0.0 0.0 0.00 0.00 0.00 81 1004.7
20260902095604 60 179 0.0 0.0 0.00 0.00 0.00 81 1004.9
20260902093103 61 88 0.0 0.0 0.00 0.00 0.00 80 1005.1
20260902092603 61 146 0.0 1.0 0.00 0.00 0.00 79 1005.1
20260902092104 61 169 0.0 0.0 0.00 0.00 0.00 79 1005.2
20260902091604 61 76 1.0 5.0 0.00 0.00 0.00 79 1005.2
20260902091104 61 47 0.0 0.0 0.00 0.00 0.00 78 1005.2
20260902090604 61 47 0.0 0.0 0.00 0.00 0.00 78 1005.2
20260902090104 61 48 0.0 0.0 0.00 0.00 0.00 77 1005.2
20260902085604 61 47 0.0 0.0 0.00 0.00 0.00 77 1005.2
20260902085104 61 47 0.0 0.0 0.00 0.00 0.00 76 1005.2
20260902084604 62 48 0.0 0.0 0.00 0.00 0.00 76 1005.2
20260902083103 62 47 0.0 0.0 0.00 0.00 0.00 75 1005.3
20260902082104 62 45 0.0 0.0 0.00 0.00 0.00 74 1005.3
20260902081103 62 289 0.0 2.0 0.00 0.00 0.00 74 1005.4
20260902080604 62 130 0.0 0.0 0.00 0.00 0.00 74 1005.3
20260902080103 62 130 0.0 0.0 0.00 0.00 0.00 74 1005.4
20260902075104 63 130 0.0 8.0 0.00 0.00 0.00 73 1005.4
20260902074604 63 337 0.0 0.0 0.00 0.00 0.00 73 1005.4
20260902074103 63 45 1.0 5.0 0.00 0.00 0.00 73 1005.4
20260902073604 63 184 3.0 10.0 0.00 0.00 0.00 73 1005.3
20260902072104 63 223 1.0 6.0 0.00 0.00 0.00 72 1005.3
20260902071604 63 169 2.0 8.0 0.00 0.00 0.00 72 1005.3
20260902071103 63 192 3.0 9.0 0.00 0.00 0.00 71 1005.3
20260902070104 64 134 1.0 6.0 0.00 0.00 0.00 70 1005.3
20260902065603 64 164 0.0 2.0 0.00 0.00 0.00 70 1005.3
20260902065103 64 82 0.0 1.0 0.00 0.00 0.00 70 1005.3
20260902064604 64 67 0.0 0.0 0.00 0.00 0.00 69 1005.4
20260902063604 63 74 1.0 8.0 0.00 0.00 0.00 70 1005.3
20260902063103 63 95 0.0 1.0 0.00 0.00 0.00 70 1005.4
20260902062603 63 287 0.0 0.0 0.00 0.00 0.00 72 1005.3
20260902062104 63 285 0.0 9.0 0.00 0.00 0.00 71 1005.4
20260902061603 63 331 0.0 0.0 0.00 0.00 0.00 71 1005.7
20260902061104 63 331 0.0 6.0 0.00 0.00 0.00 71 1005.6
20260902060603 63 331 0.0 5.0 0.00 0.00 0.00 70 1005.8
20260902060103 63 323 0.0 1.0 0.00 0.00 0.00 69 1005.8
20260902055604 63 323 1.0 5.0 0.00 0.00 0.00 69 1005.7
20260902054605 64 21 1.0 3.0 0.00 0.00 0.00 68 1005.8
20260902054103 64 12 0.0 0.0 0.00 0.00 0.00 68 1005.8
20260902053605 64 69 1.0 3.0 0.00 0.00 0.00 67 1006.0
20260902053105 65 71 0.0 0.0 0.00 0.00 0.00 66 1006.1
20260902052606 65 49 0.0 2.0 0.00 0.00 0.00 66 1006.0
20260902052106 65 73 0.0 5.0 0.00 0.00 0.00 65 1006.1
20260902051606 65 342 2.0 13.0 0.00 0.00 0.00 65 1006.1
20260902051106 65 74 2.0 12.0 0.00 0.00 0.00 65 1006.3
20260902050106 65 34 3.0 12.0 0.00 0.00 0.00 65 1006.1
20260902045605 65 60 1.0 6.0 0.00 0.00 0.00 65 1006.3
20260902045105 65 28 1.0 5.0 0.00 0.00 0.00 65 1006.2
20260902044606 65 53 0.0 0.0 0.00 0.00 0.00 65 1006.1
20260902043605 65 75 0.0 0.0 0.00 0.00 0.00 64 1006.0
20260902043106 65 70 1.0 6.0 0.00 0.00 0.00 64 1006.0
20260902042105 65 86 2.0 10.0 0.00 0.00 0.00 63 1006.1
20260902041605 65 132 1.0 8.0 0.00 0.00 0.00 63 1006.1
20260902040606 66 52 2.0 8.0 0.00 0.00 0.00 62 1006.3
20260902035105 65 70 1.0 9.0 0.00 0.00 0.00 62 1005.9
20260902034605 65 8 2.0 5.0 0.00 0.00 0.00 62 1005.9
20260902034106 66 34 1.0 5.0 0.00 0.00 0.00 62 1006.0
20260902033605 66 339 3.0 15.0 0.00 0.00 0.00 62 1006.0
20260902032606 66 337 3.0 9.0 0.00 0.00 0.00 62 1005.9
20260902032105 66 350 2.0 15.0 0.00 0.00 0.00 62 1006.0
20260902031606 66 92 2.0 15.0 0.00 0.00 0.00 61 1006.0
20260902031105 66 63 0.0 9.0 0.00 0.00 0.00 62 1006.0
20260902030605 66 97 0.0 5.0 0.00 0.00 0.00 63 1006.0
20260902030105 66 92 1.0 14.0 0.00 0.00 0.00 62 1005.9
20260902025605 67 66 2.0 9.0 0.00 0.00 0.00 61 1005.8
20260902025105 67 160 2.0 9.0 0.00 0.00 0.00 60 1005.9
20260902024105 67 104 1.0 8.0 0.00 0.00 0.00 60 1005.8
20260902023605 67 107 3.0 10.0 0.00 0.00 0.00 60 1005.8
20260902022605 67 140 2.0 13.0 0.00 0.00 0.00 60 1005.9
20260902022105 67 75 1.0 6.0 0.00 0.00 0.00 60 1005.9
20260902021605 67 54 2.0 9.0 0.00 0.00 0.00 61 1006.1
20260902021105 67 355 1.0 8.0 0.00 0.00 0.00 61 1006.1
20260902020605 68 153 2.0 5.0 0.00 0.00 0.00 60 1006.1
20260902020105 68 32 1.0 8.0 0.00 0.00 0.00 60 1006.2
20260902015106 68 342 1.0 9.0 0.00 0.00 0.00 60 1006.1
20260902014605 69 355 0.0 2.0 0.00 0.00 0.00 60 1006.1
20260902014105 69 53 2.0 8.0 0.00 0.00 0.00 59 1006.2
20260902013605 69 83 0.0 1.0 0.00 0.00 0.00 61 1006.2
20260902013105 68 92 0.0 6.0 0.00 0.00 0.00 70 1006.2
20260902012606 68 112 0.0 0.0 0.00 0.00 0.00 72 1006.2
20260902011605 68 112 0.0 0.0 0.00 0.00 0.00 72 1006.1
20260902011106 68 112 0.0 0.0 0.00 0.00 0.00 73 1006.0
20260902010604 69 112 0.0 0.0 0.00 0.00 0.00 70 1005.9
20260902010105 69 112 0.0 0.0 0.00 0.00 0.00 69 1005.8
20260902005605 69 112 0.0 0.0 0.00 0.00 0.00 69 1005.9
20260902005106 69 111 0.0 0.0 0.00 0.00 0.00 69 1005.9
20260902004605 69 115 0.0 0.0 0.00 0.00 0.00 70 1005.8
20260902004106 70 115 0.0 0.0 0.00 0.00 0.00 68 1005.8
20260902003105 71 116 0.0 1.0 0.00 0.00 0.00 66 1005.8
20260902002605 71 117 0.0 1.0 0.00 0.00 0.00 64 1005.8
20260902001605 70 103 0.0 0.0 0.00 0.00 0.00 68 1005.8
20260902001105 71 103 0.0 1.0 0.00 0.00 0.00 68 1005.8
20260902000105 71 155 0.0 0.0 0.00 0.00 0.00 67 1005.9
20260901235605 70 155 0.0 0.0 0.00 0.00 0.00 67 1005.9
20260901235105 70 155 0.0 2.0 0.00 0.00 0.00 67 1005.9
20260901234105 70 128 0.0 0.0 0.00 0.00 0.00 70 1005.9
20260901233605 70 128 0.0 2.0 0.00 0.00 0.00 68 1005.9
20260901233106 70 107 0.0 0.0 0.00 0.00 0.00 69 1005.9
20260901232605 69 107 1.0 9.0 0.00 0.00 0.00 70 1005.9
20260901232105 69 65 0.0 0.0 0.00 0.00 0.00 70 1005.9
20260901231605 69 65 0.0 0.0 0.00 0.00 0.00 69 1005.8
20260901230605 70 54 0.0 0.0 0.00 0.00 0.00 67 1005.7
20260901230105 70 53 0.0 3.0 0.00 0.00 0.00 66 1005.8
20260901225105 71 83 0.0 2.0 0.00 0.00 0.00 66 1005.8
20260901224105 70 76 0.0 0.0 0.00 0.00 0.00 67 1005.9
20260901222605 71 76 0.0 0.0 0.00 0.00 0.00 66 1005.9
20260901222105 72 76 0.0 0.0 0.00 0.00 0.00 66 1006.0
20260901221605 71 76 2.0 5.0 0.00 0.00 0.00 66 1006.0
20260901221105 72 55 2.0 5.0 0.00 0.00 0.00 64 1006.0
20260901220106 71 50 0.0 0.0 0.00 0.00 0.00 67 1006.1
20260901215605 70 50 0.0 0.0 0.00 0.00 0.00 68 1006.1
20260901215105 70 50 0.0 1.0 0.00 0.00 0.00 68 1006.1
20260901214605 71 119 0.0 0.0 0.00 0.00 0.00 68 1006.1
20260901214105 71 120 0.0 0.0 0.00 0.00 0.00 67 1006.1
20260901213605 71 120 0.0 0.0 0.00 0.00 0.00 69 1006.1
20260901213105 71 128 0.0 1.0 0.00 0.00 0.00 67 1006.1
20260901212605 72 61 0.0 2.0 0.00 0.00 0.00 66 1006.1
20260901212105 73 49 1.0 2.0 0.00 0.00 0.00 64 1006.1
20260901211605 72 246 0.0 5.0 0.00 0.00 0.00 66 1006.1
20260901211105 73 251 0.0 5.0 0.00 0.00 0.00 64 1006.1
20260901210106 72 72 1.0 5.0 0.00 0.00 0.00 67 1006.2
20260901205105 70 118 3.0 8.0 0.00 0.00 0.00 71 1006.3
20260901204605 69 120 2.0 12.0 0.00 0.00 0.00 70 1006.3
20260901204105 70 272 0.0 2.0 0.00 0.00 0.00 71 1006.3
20260901203605 71 286 5.0 8.0 0.00 0.00 0.00 71 1006.3
20260901203105 70 328 0.0 8.0 0.00 0.00 0.00 72 1006.5
20260901202605 70 320 0.0 8.0 0.00 0.00 0.00 72 1006.6
20260901202105 71 301 1.0 8.0 0.00 0.00 0.00 71 1006.6
20260901201605 71 333 0.0 6.0 0.00 0.00 0.00 71 1006.6
20260901201104 71 237 0.0 2.0 0.00 0.00 0.00 71 1006.6
20260901200605 71 325 0.0 5.0 0.00 0.00 0.00 72 1006.6
20260901200105 70 5 0.0 1.0 0.00 0.00 0.00 73 1006.6
20260901195605 70 294 0.0 6.0 0.00 0.00 0.00 74 1006.7
20260901195105 69 32 0.0 0.0 0.00 0.00 0.00 73 1006.7
20260901194606 69 32 0.0 6.0 0.00 0.00 0.00 73 1006.7
20260901193605 70 51 0.0 6.0 0.00 0.00 0.00 72 1006.8
20260901192606 70 338 0.0 0.0 0.00 0.00 0.00 73 1007.0
20260901191605 69 338 0.0 3.0 0.00 0.00 0.00 74 1007.1
20260901190605 67 338 0.0 0.0 0.00 0.00 0.00 75 1007.1
20260901190106 68 338 0.0 0.0 0.00 0.00 0.00 74 1007.1
20260901185605 67 338 0.0 0.0 0.00 0.00 0.00 76 1007.2
20260901185105 68 338 0.0 1.0 0.00 0.00 0.00 76 1007.2
20260901184605 67 318 0.0 5.0 0.00 0.00 0.00 76 1007.2
20260901184105 67 318 0.0 0.0 0.00 0.00 0.00 78 1007.3
20260901183605 68 318 0.0 0.0 0.00 0.00 0.00 75 1007.2
20260901183105 68 318 0.0 1.0 0.00 0.00 0.00 77 1007.3
20260901182605 68 318 0.0 0.0 0.00 0.00 0.00 75 1007.3
20260901182105 67 318 0.0 0.0 0.00 0.00 0.00 77 1007.3
20260901181604 67 318 0.0 0.0 0.00 0.00 0.00 76 1007.3
20260901181105 68 318 0.0 0.0 0.00 0.00 0.00 75 1007.3
20260901180605 67 318 0.0 0.0 0.00 0.00 0.00 75 1007.3
20260901180104 67 318 0.0 2.0 0.00 0.00 0.00 75 1007.3
20260901175605 67 18 0.0 0.0 0.00 0.00 0.00 75 1007.3
20260901175105 67 18 0.0 1.0 0.00 0.00 0.00 75 1007.3
20260901174105 65 87 0.0 0.0 0.00 0.00 0.00 77 1007.4
20260901173605 65 87 0.0 0.0 0.00 0.00 0.00 77 1007.4
20260901173105 65 86 0.0 0.0 0.00 0.00 0.00 77 1007.4
20260901171605 66 45 1.0 8.0 0.00 0.00 0.00 75 1007.4
20260901171105 65 61 0.0 3.0 0.00 0.00 0.00 77 1007.4
20260901170605 65 342 0.0 0.0 0.00 0.00 0.00 78 1007.5
20260901170104 64 342 0.0 0.0 0.00 0.00 0.00 78 1007.5
20260901165605 64 342 0.0 0.0 0.00 0.00 0.00 78 1007.5
20260901165105 64 342 0.0 0.0 0.00 0.00 0.00 79 1007.6
20260901164605 64 342 0.0 1.0 0.00 0.00 0.00 78 1007.5
20260901164104 63 342 0.0 0.0 0.00 0.00 0.00 81 1007.7
20260901163105 62 61 0.0 0.0 0.00 0.00 0.00 83 1007.7
20260901162605 62 28 0.0 0.0 0.00 0.00 0.00 84 1007.7
20260901162105 62 293 0.0 0.0 0.00 0.00 0.00 85 1007.7
20260901161604 61 293 0.0 0.0 0.00 0.00 0.00 86 1007.7
20260901161105 61 293 1.0 2.0 0.00 0.00 0.00 87 1007.8
20260901160605 60 85 0.0 0.0 0.00 0.00 0.00 87 1007.8
20260901160105 60 85 0.0 0.0 0.00 0.00 0.00 89 1007.8
20260901155605 59 85 0.0 0.0 0.00 0.00 0.00 90 1007.8
20260901154105 58 85 0.0 0.0 0.00 0.00 0.00 91 1007.9
20260901153605 58 85 0.0 0.0 0.00 0.00 0.00 92 1007.8
20260901153106 58 85 0.0 0.0 0.00 0.00 0.00 92 1007.8
20260901152605 57 85 0.0 0.0 0.00 0.00 0.00 92 1007.9
20260901152105 57 85 0.0 0.0 0.00 0.00 0.00 92 1007.9
20260901151604 57 85 0.0 0.0 0.00 0.00 0.00 92 1007.8
20260901151104 57 85 0.0 0.0 0.00 0.00 0.00 92 1007.7
20260901150104 57 85 0.0 0.0 0.00 0.00 0.00 92 1007.7
20260901145605 56 85 0.0 0.0 0.00 0.00 0.00 92 1007.6
20260901145105 56 85 0.0 0.0 0.00 0.00 0.00 92 1007.6
20260901144604 56 85 0.0 0.0 0.00 0.00 0.00 92 1007.5
20260901144104 56 85 0.0 0.0 0.00 0.00 0.00 92 1007.6
20260901143605 56 85 0.0 0.0 0.00 0.00 0.00 91 1007.5
20260901143105 55 85 0.0 0.0 0.00 0.00 0.00 91 1007.5
20260901142605 55 85 0.0 0.0 0.00 0.00 0.00 91 1007.5
20260901142104 55 85 0.0 0.0 0.00 0.00 0.00 91 1007.4
20260901141605 55 85 0.0 0.0 0.00 0.00 0.00 91 1007.3
20260901141105 55 85 0.0 0.0 0.00 0.00 0.00 91 1007.4
20260901140604 55 85 0.0 0.0 0.00 0.00 0.00 91 1007.3
20260901140104 55 85 0.0 0.0 0.00 0.00 0.00 91 1007.4
20260901135605 55 85 0.0 0.0 0.00 0.00 0.00 91 1007.4
20260901135105 55 85 0.0 0.0 0.00 0.00 0.00 91 1007.3
20260901134605 55 85 0.0 0.0 0.00 0.00 0.00 91 1007.3
20260901134105 55 85 0.0 0.0 0.00 0.00 0.00 90 1007.3
20260901132605 55 85 0.0 0.0 0.00 0.00 0.00 90 1007.4
20260901132105 56 85 0.0 0.0 0.00 0.00 0.00 90 1007.4
20260901131604 56 85 0.0 0.0 0.00 0.00 0.00 89 1007.3
20260901130605 56 85 0.0 0.0 0.00 0.00 0.00 90 1007.3
20260901130105 56 85 0.0 0.0 0.00 0.00 0.00 90 1007.3